Weather History for Sallisaw, OK

Change the Weather History Date:

Monday, November 18, 2013

  Actual Average Record
Temperature  
Mean Temperature 51 °F -  
Max Temperature 69 °F 62 °F 79 °F (1966)
Min Temperature 33 °F 40 °F 15 °F (2014)
Degree Days  
Heating Degree Days 14    
Growing Degree Days 1 (Base 50)    
Moisture  
Dew Point 33 °F    
Average Humidity 55    
Maximum Humidity 93    
Minimum Humidity 18    
Precipitation  
Precipitation 0.00 in - - ()
Sea Level Pressure  
Sea Level Pressure 30.21 in    
Wind  
Wind Speed 1 mph (ENE)    
Max Wind Speed 8 mph    
Max Gust Speed -    
Visibility 9 miles    
Events      
Averages and records for this station are not official NWS values.
T = Trace of Precipitation, MM = Missing Value Source: NWS Daily Summary

Daily Weather History Graph

Daily Weather History Graph

Search for Another Location

Airport:

Trip Planner

Search our weather history database for the weather conditions in past years. The results will help you decide how hot, cold, wet, or windy it might be!

Date:

Astronomy

Nov. 18, 2013 Rise Set
Actual Time 6:57 AM CST 5:10 PM CST
Civil Twilight 6:30 AM CST 5:38 PM CST
Nautical Twilight 5:59 AM CST 6:08 PM CST
Astronomical Twilight 5:29 AM CST 6:39 PM CST
Moon 6:14 PM CST (11/18) 7:46 AM CST (11/18)
Length of Visible Light 11h 07m
Length of Day
10h 13m
Full, 99% of the Moon is Illuminated
Nov 18
Full
Nov 25
Last Quarter
Dec 2
New
Dec 9
First Quarter
Dec 17
Full

Hourly Weather History & Observations

Time (CST) Temp. Windchill Dew Point Humidity Pressure Visibility Wind Dir Wind Speed Gust Speed Precip Events Conditions
12:15 AM 51.8 °F - 26.6 °F 38% 30.14 in 10.0 mi Calm Calm - N/A   Clear
12:35 AM 46.4 °F - 30.2 °F 53% 30.14 in 10.0 mi Calm Calm - N/A   Clear
12:55 AM 44.6 °F - 32.0 °F 61% 30.14 in 10.0 mi Calm Calm - N/A   Clear
1:35 AM 42.8 °F - 33.8 °F 70% 30.13 in 10.0 mi Calm Calm - N/A   Clear
1:55 AM 41.0 °F - 33.8 °F 76% 30.13 in 10.0 mi Calm Calm - N/A   Clear
2:15 AM 42.8 °F - 32.0 °F 66% 30.13 in 10.0 mi Calm Calm - N/A   Clear
2:35 AM 39.2 °F - 33.8 °F 81% 30.14 in 10.0 mi Calm Calm - N/A   Clear
2:55 AM 42.8 °F - 32.0 °F 66% 30.15 in 10.0 mi Calm Calm - N/A   Clear
3:15 AM 39.2 °F - 32.0 °F 75% 30.16 in 10.0 mi Calm Calm - N/A   Clear
3:35 AM 37.4 °F - 33.8 °F 87% 30.16 in 10.0 mi Calm Calm - N/A   Clear
3:55 AM 37.4 °F - 33.8 °F 87% 30.16 in 10.0 mi Calm Calm - N/A   Clear
4:15 AM 35.6 °F - 33.8 °F 93% 30.17 in 10.0 mi Calm Calm - N/A   Clear
4:35 AM 37.4 °F - 33.8 °F 87% 30.17 in 10.0 mi Calm Calm - N/A   Clear
4:55 AM 35.6 °F - 32.0 °F 87% 30.17 in 10.0 mi Calm Calm - N/A   Clear
5:15 AM 35.6 °F 32.8 °F 33.8 °F 93% 30.17 in 10.0 mi ENE 3.5 mph - N/A   Clear
5:35 AM 37.4 °F - 32.0 °F 81% 30.18 in 10.0 mi Calm Calm - N/A   Clear
5:55 AM 33.8 °F 30.8 °F 32.0 °F 93% 30.20 in 10.0 mi South 3.5 mph - N/A   Clear
6:15 AM 35.6 °F - 32.0 °F 87% 30.20 in 10.0 mi Calm Calm - N/A   Clear
6:35 AM 33.8 °F - 32.0 °F 93% 30.20 in 10.0 mi Calm Calm - N/A   Clear
6:55 AM 33.8 °F - 32.0 °F 93% 30.21 in 10.0 mi Calm Calm - N/A   Clear
7:15 AM 33.8 °F - 32.0 °F 93% 30.22 in 10.0 mi Calm Calm - N/A   Clear
7:35 AM 35.6 °F - 32.0 °F 87% 30.22 in 10.0 mi Calm Calm - N/A   Clear
7:55 AM 37.4 °F - 33.8 °F 87% 30.23 in 10.0 mi Calm Calm - N/A   Clear
8:15 AM 41.0 °F - 35.6 °F 81% 30.24 in 10.0 mi Calm Calm - N/A   Clear
8:35 AM 44.6 °F - 33.8 °F 66% 30.24 in 10.0 mi Calm Calm - N/A   Clear
8:55 AM 46.4 °F - 35.6 °F 66% 30.25 in 10.0 mi Calm Calm - N/A   Clear
9:15 AM 50.0 °F - 35.6 °F 58% 30.25 in 10.0 mi Calm Calm - N/A   Clear
9:35 AM 51.8 °F - 35.6 °F 54% 30.25 in 10.0 mi Calm Calm - N/A   Clear
9:55 AM 55.4 °F - 35.6 °F 47% 30.26 in 10.0 mi Calm Calm - N/A   Clear
10:15 AM 57.2 °F - 35.6 °F 44% 30.27 in 10.0 mi Calm Calm - N/A   Clear
10:35 AM 59.0 °F - 33.8 °F 39% 30.27 in 10.0 mi Calm Calm - N/A   Clear
10:55 AM 59.0 °F - 33.8 °F 39% 30.26 in 10.0 mi ENE 6.9 mph - N/A   Clear
11:15 AM 60.8 °F - 33.8 °F 36% 30.25 in 10.0 mi NNE 4.6 mph - N/A   Clear
11:35 AM 62.6 °F - 32.0 °F 32% 30.25 in 10.0 mi ENE 6.9 mph - N/A   Clear
11:55 AM 62.6 °F - 32.0 °F 32% 30.24 in 10.0 mi NNE 3.5 mph - N/A   Clear
12:15 PM 62.6 °F - 32.0 °F 32% 30.23 in 5.0 mi NE 3.5 mph - N/A   Haze
12:35 PM 64.4 °F - 32.0 °F 30% 30.22 in 10.0 mi East 4.6 mph - N/A   Clear
12:55 PM 64.4 °F - 32.0 °F 30% 30.21 in 3.0 mi Calm Calm - N/A   Haze
1:15 PM 64.4 °F - 32.0 °F 30% 30.21 in 4.0 mi ESE 4.6 mph - N/A   Haze
1:35 PM 66.2 °F - 32.0 °F 28% 30.20 in 3.0 mi Calm Calm - N/A   Haze
1:55 PM 68.0 °F - 32.0 °F 26% 30.20 in 7.0 mi Calm Calm - N/A   Clear
2:15 PM 69.8 °F - 28.4 °F 21% 30.20 in 10.0 mi East 5.8 mph - N/A   Clear
2:35 PM 69.8 °F - 26.6 °F 20% 30.19 in 7.0 mi East 8.1 mph - N/A   Clear
2:55 PM 69.8 °F - 24.8 °F 18% 30.19 in 10.0 mi East 3.5 mph - N/A   Clear
3:15 PM 69.8 °F - 24.8 °F 18% 30.19 in 7.0 mi ENE 8.1 mph - N/A   Clear
3:35 PM 69.8 °F - 24.8 °F 18% 30.19 in 7.0 mi ENE 5.8 mph - N/A   Clear
3:55 PM 68.0 °F - 32.0 °F 26% 30.20 in 4.0 mi South 5.8 mph - N/A   Haze
4:15 PM 66.2 °F - 32.0 °F 28% 30.20 in 10.0 mi South 3.5 mph - N/A   Clear
4:35 PM 64.4 °F - 32.0 °F 30% 30.20 in 10.0 mi South 3.5 mph - N/A   Clear
4:55 PM 64.4 °F - 32.0 °F 30% 30.20 in 7.0 mi South 3.5 mph - N/A   Clear
5:15 PM 60.8 °F - 32.0 °F 34% 30.21 in 10.0 mi Calm Calm - N/A   Clear
5:35 PM 59.0 °F - 33.8 °F 39% 30.21 in 10.0 mi Calm Calm - N/A   Clear
5:55 PM 57.2 °F - 33.8 °F 41% 30.22 in 10.0 mi Calm Calm - N/A   Clear
6:15 PM 51.8 °F - 37.4 °F 58% 30.21 in 10.0 mi North 3.5 mph - N/A   Clear
6:35 PM 51.8 °F - 37.4 °F 58% 30.22 in 4.0 mi NE 3.5 mph - N/A   Haze
6:55 PM 48.2 °F - 37.4 °F 66% 30.22 in 5.0 mi Calm Calm - N/A   Haze
7:15 PM 51.8 °F - 35.6 °F 54% 30.23 in 7.0 mi East 3.5 mph - N/A   Clear
7:35 PM 50.0 °F - 37.4 °F 62% 30.23 in 7.0 mi Calm Calm - N/A   Clear
7:55 PM 50.0 °F - 35.6 °F 58% 30.23 in 10.0 mi Calm Calm - N/A   Clear
8:15 PM 48.2 °F - 37.4 °F 66% 30.23 in 10.0 mi ENE 3.5 mph - N/A   Clear
8:35 PM 50.0 °F - 32.0 °F 50% 30.23 in 10.0 mi ENE 4.6 mph - N/A   Clear
8:55 PM 51.8 °F - 32.0 °F 47% 30.23 in 10.0 mi NE 4.6 mph - N/A   Clear
9:15 PM 50.0 °F - 32.0 °F 50% 30.23 in 10.0 mi ENE 4.6 mph - N/A   Clear
9:35 PM 50.0 °F - 32.0 °F 50% 30.24 in 10.0 mi ENE 4.6 mph - N/A   Clear
9:55 PM 50.0 °F - 32.0 °F 50% 30.23 in 10.0 mi ENE 4.6 mph - N/A   Clear
10:15 PM 50.0 °F - 32.0 °F 50% 30.24 in 10.0 mi ENE 3.5 mph - N/A   Clear
10:35 PM 50.0 °F - 32.0 °F 50% 30.23 in 10.0 mi ENE 4.6 mph - N/A   Clear
10:55 PM 50.0 °F - 32.0 °F 50% 30.24 in 10.0 mi ENE 4.6 mph - N/A   Clear
11:15 PM 48.2 °F - 32.0 °F 54% 30.24 in 10.0 mi ENE 3.5 mph - N/A   Clear
11:35 PM 50.0 °F - 32.0 °F 50% 30.24 in 5.0 mi ENE 3.5 mph - N/A   Haze
11:55 PM 50.0 °F - 32.0 °F 50% 30.24 in 10.0 mi ENE 4.6 mph - N/A   Clear